Liberia, Costa Rica

9:16 PM CST on June 22, 2017 (GMT -0600)
Daniel Oduber Quiros International

Weather History for MRLB - January, 2014

Change the Weather History Date:

Tuesday, January 21, 2014

  Actual Average Record
Temperature  
Mean Temperature 82 °F -  
Max Temperature 92 °F 89 °F 93 °F (2012)
Min Temperature 71 °F 74 °F 64 °F (2007)
Cooling Degree Days 16    
Growing Degree Days 32 (Base 50)    
Moisture  
Dew Point 67 °F    
Average Humidity 55    
Maximum Humidity 88    
Minimum Humidity 34    
Precipitation  
Precipitation 0.00 in - - ()
Sea Level Pressure  
Sea Level Pressure 29.83 in    
Wind  
Wind Speed 9 mph ()    
Max Wind Speed 20 mph    
Max Gust Speed -    
Visibility 8.3 miles    
Events      
Averages and records for this station are not official NWS values.
T = Trace of Precipitation, MM = Missing Value Source: Averaged Metar Reports

Daily Weather History Graph

Daily Weather History Graph

Search for Another Location

Airport or City:

Trip Planner

Search our weather history database for the weather conditions in past years. The results will help you decide how hot, cold, wet, or windy it might be!

Date:

Astronomy

Jan. 21, 2014 Rise Set
Actual Time 6:05 AM CST 5:41 PM CST
Civil Twilight 5:43 AM CST 6:04 PM CST
Nautical Twilight 5:17 AM CST 6:29 PM CST
Astronomical Twilight 4:51 AM CST 6:55 PM CST
Moon 10:06 PM CST (1/21) 9:36 AM CST (1/21)
Length of Visible Light 12h 21m
Length of Day
11h 36m
Waning Gibbous, 74% of the Moon is Illuminated
Jan 21
Waning Gibbous
Jan 23
Last Quarter
Jan 30
New
Feb 6
First Quarter
Feb 14
Full

Hourly Weather History & Observations

Time (CST) Temp. Heat Index Dew Point Humidity Pressure Visibility Wind Dir Wind Speed Gust Speed Precip Events Conditions
6:00 AM 72 °F - 69 °F 86% 29.87 in 12 mi WSW 5.8 mph - -   Mostly Cloudy
6:00 AM 71.6 °F - 68.0 °F 88% 29.84 in - WSW 5.8 mph - N/A   Clear
7:00 AM 75.2 °F - 69.8 °F 83% 29.86 in - WNW 3.5 mph - N/A   Clear
8:00 AM 78.8 °F - 69.8 °F 74% 29.89 in - WNW 3.5 mph - N/A   Clear
9:00 AM 82 °F - 69 °F 56% 29.93 in 12 mi SW 4.6 mph - -   Scattered Clouds
9:00 AM 82.4 °F 85.4 °F 68.0 °F 62% 29.90 in - SW 4.6 mph - N/A   Clear
10:00 AM 87.8 °F 91.4 °F 68.0 °F 52% 29.88 in 6.2 mi East 8.1 mph - N/A   Partly Cloudy
11:00 AM 89.6 °F 92.2 °F 66.2 °F 46% 29.86 in 6.2 mi ESE 5.8 mph - N/A   Partly Cloudy
12:00 PM 91 °F - 66 °F 34% 29.87 in 12 mi East 16.1 mph - -   Partly Cloudy
12:00 PM 91.4 °F 94.0 °F 66.2 °F 43% 29.84 in 6.2 mi East 16.1 mph - N/A   Scattered Clouds
1:00 PM 89.6 °F 92.2 °F 66.2 °F 46% 29.80 in 6.2 mi East 15.0 mph - N/A   Partly Cloudy
1:52 PM 91.4 °F 94.0 °F 66.2 °F 43% 29.78 in 6.2 mi East 19.6 mph - N/A   Partly Cloudy
2:00 PM 91.4 °F 94.0 °F 66.2 °F 43% 29.78 in 6.2 mi East 19.6 mph - N/A   Partly Cloudy
3:00 PM 90 °F - 65 °F 34% 29.81 in 12 mi East 17.3 mph - -   Partly Cloudy
3:00 PM 89.6 °F 92.2 °F 66.2 °F 46% 29.77 in 6.2 mi East 17.3 mph - N/A   Scattered Clouds
4:00 PM 89.6 °F 92.2 °F 66.2 °F 46% 29.77 in 6.2 mi East 15.0 mph - N/A   Mostly Cloudy
5:00 PM 86.0 °F 88.2 °F 66.2 °F 51% 29.78 in 6.2 mi East 16.1 mph - N/A   Mostly Cloudy
6:00 PM 84 °F - 66 °F 45% 29.83 in 12 mi East 18.4 mph - -   Mostly Cloudy
6:00 PM 84.2 °F 86.6 °F 66.2 °F 55% 29.79 in - East 18.4 mph - N/A   Clear
7:00 PM 82.4 °F 84.6 °F 66.2 °F 58% 29.80 in - East 13.8 mph - N/A   Clear
8:00 PM 82.4 °F 84.6 °F 66.2 °F 58% 29.83 in - East 10.4 mph - N/A   Clear